GW3577 Weather Reports


time (UTC)temp
C
wind
direction
speed
KPH
gust
KPH
rain 1hr
cm
rain 24hr
cm
rain mn
cm
humidity
%
barometer
mb
20260510091744 7 340 0.0 4.8 0.00 0.00 0.00 97 1013.7
20260510091242 8 340 0.0 0.0 0.00 0.00 0.00 97 1013.7
20260510090738 8 340 0.0 0.0 0.00 0.00 0.00 97 1013.7
20260510090235 8 340 1.6 6.4 0.00 0.00 0.00 97 1013.7
20260510085730 7 340 0.0 0.0 0.00 0.00 0.00 97 1013.7
20260510085225 8 340 0.0 0.0 0.00 0.00 0.00 96 1013.3
20260510084721 8 340 0.0 0.0 0.00 0.00 0.00 95 1013.7
20260510084219 8 340 0.0 0.0 0.00 0.00 0.00 96 1013.3
20260510083715 8 340 0.0 0.0 0.00 0.00 0.00 95 1013.3
20260510083212 8 340 0.0 0.0 0.00 0.00 0.00 95 1013.3
20260510082708 8 340 0.0 0.0 0.00 0.00 0.00 95 1013.3
20260510082205 8 340 0.0 0.0 0.00 0.00 0.00 96 1013.3
20260510081659 8 340 0.0 1.6 0.00 0.00 0.00 96 1013.3
20260510081155 8 340 0.0 0.0 0.00 0.00 0.00 95 1013.3
20260510080655 8 340 0.0 0.0 0.00 0.00 0.00 95 1013.3
20260510080152 8 340 0.0 0.0 0.00 0.00 0.00 94 1013.0
20260510075649 8 340 1.6 6.4 0.00 0.00 0.00 94 1013.0
20260510075147 8 340 0.0 0.0 0.00 0.00 0.00 95 1013.0
20260510074643 8 340 0.0 0.0 0.00 0.00 0.00 94 1013.0
20260510074139 8 340 0.0 0.0 0.00 0.00 0.00 93 1013.0
20260510073635 9 340 0.0 0.0 0.00 0.00 0.00 93 1013.0
20260510073131 9 340 0.0 0.0 0.00 0.00 0.00 92 1013.0
20260510072627 9 340 0.0 0.0 0.00 0.00 0.00 92 1013.0
20260510072124 10 340 0.0 0.0 0.00 0.00 0.00 91 1013.0
20260510071620 10 340 0.0 0.0 0.00 0.00 0.00 90 1013.0
20260510071118 10 340 0.0 0.0 0.00 0.00 0.00 91 1013.0
20260510070615 10 340 1.6 6.4 0.00 0.00 0.00 93 1013.0
20260510070113 10 340 0.0 0.0 0.00 0.00 0.00 92 1013.0
20260510065609 10 340 0.0 0.0 0.00 0.00 0.00 91 1013.0
20260510065105 11 340 0.0 0.0 0.00 0.00 0.00 88 1013.0
20260510064601 11 340 0.0 0.0 0.00 0.00 0.00 86 1012.6
20260510064058 11 340 1.6 6.4 0.00 0.00 0.00 88 1013.0
20260510063555 10 340 3.2 6.4 0.00 0.00 0.00 90 1012.6
20260510063051 10 356 0.0 6.4 0.00 0.00 0.00 91 1013.0
20260510062547 10 356 0.0 0.0 0.00 0.00 0.00 91 1013.0
20260510062043 10 356 0.0 0.0 0.00 0.00 0.00 91 1013.0
20260510061539 11 356 0.0 0.0 0.00 0.00 0.00 90 1013.0
20260510061036 12 356 0.0 0.0 0.00 0.00 0.00 86 1012.6
20260510060532 12 356 0.0 1.6 0.00 0.00 0.00 79 1012.6
20260510060029 12 356 0.0 0.0 0.00 0.00 0.00 78 1012.6
20260510055525 12 349 4.8 9.7 0.00 0.00 0.00 81 1012.6
20260510055023 11 349 4.8 8.0 0.00 0.00 0.00 86 1012.6
20260510054519 11 278 0.0 0.0 0.00 0.00 0.00 86 1013.0
20260510054014 11 278 0.0 0.0 0.00 0.00 0.00 87 1013.0
20260510053508 12 278 0.0 0.0 0.00 0.00 0.00 87 1013.0
20260510053006 12 278 0.0 0.0 0.00 0.00 0.00 85 1012.6
20260510052502 11 320 0.0 6.4 0.00 0.00 0.00 88 1012.6
20260510051958 10 231 0.0 1.6 0.00 0.00 0.00 91 1012.6
20260510051454 10 231 0.0 6.4 0.00 0.00 0.00 91 1012.6
20260510050950 10 305 11.3 12.9 0.00 0.00 0.00 93 1012.6
20260510050448 10 334 1.6 6.4 0.00 0.00 0.00 93 1012.6
20260510045945 10 320 0.0 3.2 0.00 0.00 0.00 92 1012.6
20260510045442 11 320 0.0 6.4 0.00 0.00 0.00 92 1012.6
20260510044938 10 320 3.2 6.4 0.00 0.00 0.00 92 1012.6
20260510044435 11 351 0.0 0.0 0.00 0.00 0.00 92 1012.6
20260510043932 11 351 3.2 9.7 0.00 0.00 0.00 93 1012.6
20260510043428 11 289 0.0 0.0 0.00 0.00 0.00 94 1012.6
20260510042926 11 127 1.6 4.8 0.00 0.00 0.00 94 1012.6
20260510042422 11 141 0.0 0.0 0.00 0.00 0.00 94 1012.6
20260510041918 11 141 0.0 0.0 0.00 0.00 0.00 93 1013.0
20260510041415 11 141 0.0 4.8 0.00 0.00 0.00 93 1013.0
20260510040913 11 141 3.2 6.4 0.00 0.00 0.00 92 1012.6
20260510040409 11 142 3.2 6.4 0.00 0.00 0.00 89 1012.6
20260510035905 12 332 0.0 0.0 0.00 0.00 0.00 84 1012.6
20260510035401 12 332 3.2 6.4 0.00 0.00 0.00 82 1012.6
20260510034856 12 333 6.4 8.0 0.00 0.00 0.00 83 1012.6
20260510034355 11 321 6.4 9.7 0.00 0.00 0.00 88 1012.6
20260510033851 11 338 4.8 6.4 0.00 0.00 0.00 91 1012.6
20260510033348 11 340 1.6 8.0 0.00 0.00 0.00 91 1012.6
20260510032844 11 352 0.0 0.0 0.00 0.00 0.00 89 1012.6
20260510032341 13 352 0.0 0.0 0.00 0.00 0.00 85 1012.6
20260510031836 13 352 4.8 8.0 0.00 0.00 0.00 80 1012.6
20260510031332 12 334 4.8 6.4 0.00 0.00 0.00 83 1012.6
20260510030832 12 320 4.8 6.4 0.00 0.00 0.00 88 1012.6
20260510030328 12 320 3.2 6.4 0.00 0.00 0.00 89 1012.6
20260510025826 11 285 1.6 4.8 0.00 0.00 0.00 91 1012.6
20260510025323 11 327 0.0 0.0 0.00 0.00 0.00 92 1012.6
20260510024820 12 327 0.0 0.0 0.00 0.00 0.00 93 1012.6
20260510024317 12 327 0.0 0.0 0.00 0.00 0.00 93 1012.3
20260510023813 12 327 0.0 0.0 0.00 0.00 0.00 93 1012.6
20260510023310 12 327 0.0 0.0 0.00 0.00 0.00 93 1012.3
20260510022807 12 327 0.0 0.0 0.00 0.00 0.00 93 1012.3
20260510022307 12 327 0.0 0.0 0.00 0.00 0.00 93 1012.3
20260510021805 12 327 0.0 0.0 0.00 0.00 0.00 93 1012.3
20260510021304 12 327 3.2 6.4 0.00 0.00 0.00 93 1012.0
20260510020800 12 327 0.0 0.0 0.00 0.00 0.00 93 1012.0
20260510020259 12 327 0.0 0.0 0.00 0.00 0.00 92 1012.0
20260510015756 13 327 0.0 0.0 0.00 0.00 0.00 92 1012.0
20260510015252 13 327 0.0 0.0 0.00 0.00 0.00 91 1011.6
20260510014747 13 327 0.0 0.0 0.00 0.00 0.00 90 1011.6
20260510014244 14 327 0.0 0.0 0.00 0.00 0.00 88 1011.6
20260510013740 14 327 0.0 0.0 0.00 0.00 0.00 86 1011.6
20260510013236 15 327 0.0 0.0 0.00 0.00 0.00 85 1011.3
20260510012731 15 327 0.0 0.0 0.00 0.00 0.00 84 1011.3
20260510012226 15 327 0.0 0.0 0.00 0.00 0.00 84 1011.3
20260510011727 15 327 0.0 0.0 0.00 0.00 0.00 86 1011.3
20260510011222 15 327 0.0 0.0 0.00 0.00 0.00 86 1011.3
20260510010719 15 327 0.0 0.0 0.00 0.00 0.00 84 1010.9
20260510010215 15 327 0.0 0.0 0.00 0.00 0.00 83 1010.9
20260510005712 15 327 0.0 4.8 0.00 0.00 0.00 86 1010.9
20260510005208 15 327 0.0 4.8 0.00 0.00 0.00 85 1010.9
20260510004707 15 327 1.6 4.8 0.00 0.00 0.00 84 1010.9
20260510004204 16 327 0.0 0.0 0.00 0.00 0.00 83 1010.9
20260510003702 16 327 0.0 0.0 0.00 0.00 0.00 81 1010.9
20260510003157 16 327 0.0 6.4 0.00 0.00 0.00 81 1010.5
20260510002657 16 327 1.6 4.8 0.00 0.00 0.00 82 1010.5
20260510002154 16 295 0.0 4.8 0.00 0.00 0.00 81 1010.5
20260510001651 16 295 1.6 4.8 0.00 0.00 0.00 81 1010.5
20260510001145 17 295 1.6 4.8 0.00 0.00 0.00 81 1010.5
20260510000645 17 248 0.0 0.0 0.00 0.00 0.00 79 1010.2
20260510000142 17 248 0.0 0.0 0.00 0.00 0.00 78 1010.2
20260509235638 18 248 0.0 0.0 0.00 0.00 0.00 76 1010.2
20260509235135 18 248 0.0 0.0 0.00 0.00 0.00 74 1010.2
20260509234631 19 248 0.0 0.0 0.00 0.00 0.00 72 1010.2
20260509234129 20 248 0.0 0.0 0.00 0.00 0.00 70 1009.8
20260509233626 20 248 0.0 0.0 0.00 0.00 0.00 70 1009.8
20260509233123 21 248 0.0 0.0 0.00 0.00 0.00 67 1009.8
20260509232619 21 248 0.0 0.0 0.00 0.00 0.00 66 1009.8
20260509232116 21 248 0.0 0.0 0.00 0.00 0.00 62 1009.8
20260509231613 21 248 3.2 3.2 0.00 0.00 0.00 60 1009.8
20260509231111 22 248 3.2 3.2 0.00 0.00 0.00 58 1009.8
20260509230608 22 248 3.2 8.0 0.00 0.00 0.00 53 1009.8
20260509230105 22 248 0.0 0.0 0.00 0.00 0.00 53 1009.8
20260509225600 22 248 6.4 6.4 0.00 0.00 0.00 51 1009.8
20260509225055 23 228 4.8 6.4 0.00 0.00 0.00 51 1009.8
20260509224551 23 176 0.0 3.2 0.00 0.00 0.00 50 1009.8
20260509224048 23 239 0.0 4.8 0.00 0.00 0.00 52 1009.8
20260509223545 23 239 1.6 6.4 0.00 0.00 0.00 51 1009.8
20260509223043 23 239 8.0 9.7 0.00 0.00 0.00 51 1009.8
20260509222539 23 205 1.6 6.4 0.00 0.00 0.00 50 1009.8
20260509222036 23 225 6.4 11.3 0.00 0.00 0.00 50 1009.8
20260509221531 23 221 6.4 11.3 0.00 0.00 0.00 51 1009.8
20260509221027 23 213 6.4 8.0 0.00 0.00 0.00 50 1009.5
20260509220523 23 238 9.7 11.3 0.00 0.00 0.00 49 1009.8
20260509220019 24 182 3.2 4.8 0.00 0.00 0.00 50 1009.5
20260509215514 23 254 9.7 14.5 0.00 0.00 0.00 50 1009.5
20260509215012 23 224 8.0 14.5 0.00 0.00 0.00 50 1009.5
20260509214509 23 241 4.8 6.4 0.00 0.00 0.00 49 1009.5
20260509214006 23 228 6.4 9.7 0.00 0.00 0.00 49 1009.5
20260509213502 24 208 8.0 11.3 0.00 0.00 0.00 48 1009.5
20260509213000 24 154 3.2 8.0 0.00 0.00 0.00 48 1009.5
20260509212457 24 185 3.2 8.0 0.00 0.00 0.00 48 1009.5
20260509211954 24 174 3.2 6.4 0.00 0.00 0.00 48 1009.5
20260509211449 23 191 4.8 6.4 0.00 0.00 0.00 49 1009.5
20260509210946 22 249 1.6 6.4 0.00 0.00 0.00 54 1009.5
20260509210443 22 234 4.8 9.7 0.00 0.00 0.00 53 1009.5
20260509205938 22 164 4.8 6.4 0.00 0.00 0.00 52 1009.8
20260509205433 22 182 6.4 12.9 0.00 0.00 0.00 52 1009.5
20260509204929 22 222 4.8 9.7 0.00 0.00 0.00 52 1009.5
20260509204425 22 241 4.8 8.0 0.00 0.00 0.00 54 1009.5
20260509203922 22 213 4.8 8.0 0.00 0.00 0.00 53 1009.5
20260509203418 22 220 6.4 9.7 0.00 0.00 0.00 53 1009.5
20260509202916 23 247 11.3 14.5 0.00 0.00 0.00 50 1009.2
20260509202412 24 188 6.4 9.7 0.00 0.00 0.00 50 1009.2
20260509201907 23 203 3.2 4.8 0.00 0.00 0.00 50 1009.2
20260509201402 23 252 12.9 20.9 0.00 0.00 0.00 49 1009.2
20260509200859 23 216 11.3 19.3 0.00 0.00 0.00 50 1009.2
20260509200359 23 241 12.9 17.7 0.00 0.00 0.00 49 1009.2
20260509195856 24 258 12.9 19.3 0.00 0.00 0.00 50 1009.2
20260509195356 22 237 8.0 9.7 0.00 0.00 0.00 53 1009.2
20260509194851 22 225 6.4 12.9 0.00 0.00 0.00 52 1009.5
20260509194347 23 237 9.7 12.9 0.00 0.00 0.00 51 1009.2
20260509193844 22 237 8.0 9.7 0.00 0.00 0.00 51 1009.5
20260509193343 22 221 9.7 14.5 0.00 0.00 0.00 51 1009.5
20260509192840 23 243 8.0 11.3 0.00 0.00 0.00 51 1009.8
20260509192336 23 204 9.7 14.5 0.00 0.00 0.00 50 1009.5
20260509191831 22 228 8.0 12.9 0.00 0.00 0.00 52 1009.8
20260509191327 22 226 6.4 11.3 0.00 0.00 0.00 51 1009.8
20260509190823 22 203 8.0 9.7 0.00 0.00 0.00 50 1009.8
20260509190321 23 243 8.0 14.5 0.00 0.00 0.00 50 1009.8
20260509185818 23 170 6.4 9.7 0.00 0.00 0.00 49 1009.8
20260509185309 22 213 3.2 8.0 0.00 0.00 0.00 53 1009.8
20260509184806 22 190 3.2 6.4 0.00 0.00 0.00 53 1010.2
20260509184304 22 198 3.2 6.4 0.00 0.00 0.00 52 1010.2
20260509183800 23 190 6.4 11.3 0.00 0.00 0.00 50 1010.2
20260509183255 23 217 6.4 11.3 0.00 0.00 0.00 52 1009.8
20260509182751 24 188 6.4 11.3 0.00 0.00 0.00 48 1009.8
20260509182249 25 225 6.4 11.3 0.00 0.00 0.00 49 1009.8
20260509181746 25 177 4.8 8.0 0.00 0.00 0.00 47 1009.8
20260509181243 24 208 1.6 9.7 0.00 0.00 0.00 51 1009.8
20260509180740 23 144 3.2 9.7 0.00 0.00 0.00 52 1010.2
20260509180237 22 235 4.8 8.0 0.00 0.00 0.00 52 1010.2
20260509175733 23 177 3.2 9.7 0.00 0.00 0.00 51 1010.5
20260509175229 23 170 6.4 9.7 0.00 0.00 0.00 52 1010.2
20260509174725 22 239 8.0 11.3 0.00 0.00 0.00 53 1010.5
20260509174221 22 246 14.5 16.1 0.00 0.00 0.00 54 1010.5
20260509173717 22 224 14.5 19.3 0.00 0.00 0.00 54 1010.5
20260509173213 22 193 6.4 11.3 0.00 0.00 0.00 55 1010.9
20260509172709 22 217 3.2 6.4 0.00 0.00 0.00 56 1010.9
20260509172206 22 262 11.3 16.1 0.00 0.00 0.00 57 1010.9
20260509171701 21 258 9.7 11.3 0.00 0.00 0.00 58 1011.3
20260509171157 22 280 6.4 9.7 0.00 0.00 0.00 58 1011.3
20260509170655 20 255 4.8 6.4 0.00 0.00 0.00 60 1011.6
20260509170151 20 248 3.2 6.4 0.00 0.00 0.00 60 1012.0
20260509165649 20 260 8.0 12.9 0.00 0.00 0.00 62 1012.0
20260509165144 20 269 8.0 9.7 0.00 0.00 0.00 60 1012.0
20260509164641 20 248 4.8 8.0 0.00 0.00 0.00 60 1011.6
20260509164137 20 241 6.4 8.0 0.00 0.00 0.00 59 1011.6
20260509163634 20 221 6.4 11.3 0.00 0.00 0.00 61 1011.6
20260509163130 20 251 6.4 9.7 0.00 0.00 0.00 60 1011.6
20260509162627 20 248 0.0 0.0 0.00 0.00 0.00 59 1011.6
20260509162123 20 243 11.3 14.5 0.00 0.00 0.00 59 1011.6
20260509161620 20 238 6.4 9.7 0.00 0.00 0.00 60 1011.6
20260509161114 19 248 8.0 12.9 0.00 0.00 0.00 62 1012.0
20260509160611 18 201 3.2 6.4 0.00 0.00 0.00 62 1012.3
20260509160106 19 224 8.0 11.3 0.00 0.00 0.00 62 1012.0
20260509155603 18 230 3.2 6.4 0.00 0.00 0.00 64 1012.3
20260509155059 17 230 6.4 9.7 0.00 0.00 0.00 66 1012.3
20260509154555 17 230 3.2 4.8 0.00 0.00 0.00 65 1012.3
20260509154053 17 246 8.0 11.3 0.00 0.00 0.00 64 1012.3
20260509153549 17 246 4.8 8.0 0.00 0.00 0.00 64 1012.0
20260509153046 17 221 4.8 6.4 0.00 0.00 0.00 65 1012.3
20260509152542 17 243 6.4 8.0 0.00 0.00 0.00 66 1012.3
20260509152039 17 243 0.0 3.2 0.00 0.00 0.00 64 1012.3
20260509151530 18 248 6.4 9.7 0.00 0.00 0.00 64 1012.3
20260509151028 18 155 1.6 3.2 0.00 0.00 0.00 65 1012.6
20260509150525 17 155 0.0 0.0 0.00 0.00 0.00 66 1012.6
20260509150024 16 155 0.0 3.2 0.00 0.00 0.00 67 1012.6
20260509145524 16 155 1.6 4.8 0.00 0.00 0.00 66 1012.6
20260509145019 16 155 3.2 6.4 0.00 0.00 0.00 66 1012.6
20260509144516 16 155 0.0 3.2 0.00 0.00 0.00 66 1012.6
20260509144014 17 155 0.0 4.8 0.00 0.00 0.00 65 1012.6
20260509143510 16 155 0.0 0.0 0.00 0.00 0.00 64 1012.6
20260509143009 16 155 3.2 4.8 0.00 0.00 0.00 65 1012.3
20260509142504 16 161 0.0 0.0 0.00 0.00 0.00 67 1012.3
20260509141959 15 161 1.6 3.2 0.00 0.00 0.00 69 1012.0
20260509141455 15 161 1.6 3.2 0.00 0.00 0.00 70 1012.3
20260509140953 14 161 0.0 0.0 0.00 0.00 0.00 71 1012.6
20260509140449 14 161 1.6 3.2 0.00 0.00 0.00 71 1012.6
20260509135947 13 161 1.6 3.2 0.00 0.00 0.00 71 1012.6
20260509135444 14 338 0.0 0.0 0.00 0.00 0.00 70 1013.0
20260509134941 14 338 0.0 0.0 0.00 0.00 0.00 69 1013.0
20260509134439 14 338 0.0 0.0 0.00 0.00 0.00 71 1013.0
20260509133936 13 338 0.0 0.0 0.00 0.00 0.00 72 1013.0
20260509133432 13 338 0.0 0.0 0.00 0.00 0.00 72 1013.0
20260509132931 13 338 0.0 0.0 0.00 0.00 0.00 75 1013.0
20260509132429 12 338 0.0 0.0 0.00 0.00 0.00 75 1013.3
20260509131925 12 338 0.0 0.0 0.00 0.00 0.00 73 1013.3
20260509131423 12 338 0.0 0.0 0.00 0.00 0.00 77 1013.3
20260509130919 12 338 0.0 0.0 0.00 0.00 0.00 77 1013.3
20260509130414 11 338 0.0 0.0 0.00 0.00 0.00 79 1013.3
20260509125912 11 338 0.0 0.0 0.00 0.00 0.00 80 1013.3
20260509125409 11 338 0.0 0.0 0.00 0.00 0.00 81 1013.3
20260509124904 11 338 0.0 0.0 0.00 0.00 0.00 81 1013.7
20260509124402 11 338 0.0 0.0 0.00 0.00 0.00 82 1013.7
20260509123859 11 338 0.0 0.0 0.00 0.00 0.00 82 1013.7
20260509123356 11 338 0.0 0.0 0.00 0.00 0.00 82 1013.7
20260509122852 11 338 0.0 0.0 0.00 0.00 0.00 80 1013.7
20260509122349 11 338 0.0 0.0 0.00 0.00 0.00 81 1013.7
20260509121846 11 338 0.0 0.0 0.00 0.00 0.00 83 1013.7
20260509121343 10 338 0.0 0.0 0.00 0.00 0.00 82 1013.7
20260509120841 10 338 0.0 0.0 0.00 0.00 0.00 80 1013.7
20260509120339 10 338 0.0 0.0 0.00 0.00 0.00 81 1013.7
20260509115837 10 338 0.0 0.0 0.00 0.00 0.00 83 1013.7
20260509115333 10 338 0.0 0.0 0.00 0.00 0.00 87 1013.7
20260509114831 9 338 0.0 0.0 0.00 0.00 0.00 93 1013.3
20260509114330 9 338 0.0 0.0 0.00 0.00 0.00 96 1013.7
20260509113829 8 338 0.0 0.0 0.00 0.00 0.00 96 1013.3
20260509113325 8 338 0.0 0.0 0.00 0.00 0.00 97 1013.7
20260509112822 8 338 0.0 0.0 0.00 0.00 0.00 96 1013.3
20260509112319 7 338 0.0 0.0 0.00 0.00 0.00 96 1013.3
20260509111816 7 338 0.0 0.0 0.00 0.00 0.00 97 1013.3
20260509111313 7 338 0.0 0.0 0.00 0.00 0.00 97 1013.3
20260509110811 7 338 0.0 0.0 0.00 0.00 0.00 97 1013.0
20260509110307 7 338 0.0 0.0 0.00 0.00 0.00 97 1013.0
20260509105805 6 338 0.0 0.0 0.00 0.00 0.00 97 1013.0
20260509105306 6 338 0.0 0.0 0.00 0.00 0.00 96 1013.0
20260509104759 6 338 0.0 0.0 0.00 0.00 0.00 95 1013.0
20260509104256 6 338 0.0 0.0 0.00 0.00 0.00 96 1013.0
20260509103754 6 338 0.0 0.0 0.00 0.00 0.00 97 1012.6
20260509103251 6 338 0.0 0.0 0.00 0.00 0.00 97 1012.6
20260509102749 6 338 0.0 0.0 0.00 0.00 0.00 97 1012.6
20260509102246 6 338 0.0 0.0 0.00 0.00 0.00 97 1012.6
20260509101742 6 338 0.0 0.0 0.00 0.00 0.00 98 1012.6
20260509101239 6 338 0.0 0.0 0.00 0.00 0.00 98 1012.6
20260509100736 6 338 0.0 0.0 0.00 0.00 0.00 97 1012.6
20260509100233 6 338 0.0 0.0 0.00 0.00 0.00 97 1012.6
20260509095730 6 338 0.0 0.0 0.00 0.00 0.00 97 1012.6
20260509095227 6 338 0.0 0.0 0.00 0.00 0.00 97 1012.6
20260509094724 6 338 0.0 0.0 0.00 0.00 0.00 97 1012.6
20260509094221 6 338 0.0 0.0 0.00 0.00 0.00 97 1012.6
20260509093719 6 338 0.0 0.0 0.00 0.00 0.00 97 1012.6
20260509093217 6 338 0.0 0.0 0.00 0.00 0.00 97 1012.6
20260509092715 6 338 0.0 0.0 0.00 0.00 0.00 97 1012.6
20260509092213 6 338 0.0 0.0 0.00 0.00 0.00 97 1012.6